FW9574 Weather Reports


Display with metric or nautical units.
time (UTC)temp
F
wind
direction
speed
MPH
gust
MPH
rain 1hr
in
rain 24hr
in
rain mn
in
humidity
%
barometer
mb
20260906194353 76 185 8.0 14.0 0.00 0.00 0.00 89 1014.3
20260906193849 77 165 7.0 13.0 0.00 0.00 0.00 88 1014.2
20260906193343 77 168 5.0 13.0 0.00 0.00 0.00 88 1014.1
20260906192838 77 159 10.0 12.0 0.00 0.00 0.00 87 1014.2
20260906192333 78 158 10.0 14.0 0.00 0.00 0.00 86 1014.5
20260906191832 78 164 4.0 13.0 0.00 0.00 0.00 86 1014.5
20260906191327 78 183 4.0 12.0 0.00 0.00 0.00 86 1014.4
20260906190821 78 157 9.0 12.0 0.00 0.00 0.00 85 1014.7
20260906190320 78 180 5.0 8.0 0.00 0.00 0.00 86 1014.6
20260906185815 78 170 3.0 11.0 0.00 0.00 0.00 86 1014.7
20260906185314 78 178 6.0 11.0 0.00 0.00 0.00 85 1014.6
20260906184809 78 164 9.0 12.0 0.00 0.00 0.00 85 1014.6
20260906184304 78 152 5.0 10.0 0.00 0.00 0.00 85 1014.5
20260906183759 79 162 9.0 14.0 0.00 0.00 0.00 85 1014.4
20260906183256 79 173 6.0 11.0 0.00 0.00 0.00 84 1014.6
20260906182755 80 163 3.0 8.0 0.00 0.00 0.00 83 1014.6
20260906182251 80 183 5.0 7.0 0.00 0.00 0.00 83 1014.5
20260906181746 80 104 5.0 9.0 0.00 0.00 0.00 83 1014.5
20260906181242 80 101 3.0 7.0 0.00 0.00 0.00 83 1014.4
20260906180737 80 174 5.0 9.0 0.00 0.00 0.00 83 1014.5
20260906180232 80 130 4.0 7.0 0.00 0.00 0.00 83 1014.6
20260906175730 79 156 3.0 12.0 0.00 0.00 0.00 84 1014.5
20260906175226 79 163 9.0 11.0 0.00 0.00 0.00 84 1014.7
20260906174724 80 158 4.0 10.0 0.00 0.00 0.00 83 1014.6
20260906174223 80 129 4.0 9.0 0.00 0.00 0.00 82 1014.6
20260906173719 79 131 2.0 9.0 0.00 0.00 0.00 84 1014.4
20260906173214 79 154 7.0 11.0 0.00 0.00 0.00 83 1014.5
20260906172713 78 162 2.0 6.0 0.00 0.00 0.00 85 1014.8
20260906172209 78 150 4.0 10.0 0.00 0.00 0.00 84 1014.7
20260906171704 79 176 6.0 12.0 0.00 0.00 0.00 84 1014.8
20260906171200 78 121 2.0 11.0 0.00 0.00 0.00 85 1014.9
20260906170655 78 154 6.0 11.0 0.00 0.00 0.00 84 1015.0
20260906170154 79 171 3.0 8.0 0.00 0.00 0.00 84 1015.0
20260906165646 79 111 6.0 10.0 0.00 0.00 0.00 83 1014.8
20260906165141 79 161 4.0 11.0 0.00 0.00 0.00 84 1015.0
20260906164640 79 123 4.0 7.0 0.00 0.00 0.00 83 1015.1
20260906164135 79 104 2.0 6.0 0.00 0.00 0.00 82 1015.2
20260906163630 79 140 5.0 12.0 0.00 0.00 0.00 84 1015.0
20260906163126 79 110 5.0 9.0 0.00 0.00 0.00 84 1015.2
20260906162623 78 138 4.0 12.0 0.00 0.00 0.00 84 1015.2
20260906162118 78 145 3.0 9.0 0.00 0.00 0.00 85 1014.9
20260906161613 78 131 5.0 14.0 0.00 0.00 0.00 84 1015.1
20260906161112 78 156 7.0 13.0 0.00 0.00 0.00 85 1015.2
20260906160611 78 147 9.0 11.0 0.00 0.00 0.00 85 1015.0
20260906160110 78 114 9.0 13.0 0.00 0.00 0.00 84 1015.1
20260906155608 79 124 5.0 9.0 0.00 0.00 0.00 83 1015.1
20260906155104 78 137 5.0 9.0 0.00 0.00 0.00 84 1015.1
20260906154559 78 136 5.0 9.0 0.00 0.00 0.00 83 1015.2
20260906154057 79 141 6.0 10.0 0.00 0.00 0.00 83 1015.5
20260906153556 78 144 4.0 10.0 0.00 0.00 0.00 86 1015.2
20260906153051 77 137 6.0 9.0 0.00 0.00 0.00 86 1015.3
20260906152550 77 135 4.0 8.0 0.00 0.00 0.00 87 1015.4
20260906152045 76 130 4.0 10.0 0.00 0.00 0.00 87 1015.5
20260906151540 76 140 4.0 10.0 0.00 0.00 0.00 87 1015.3
20260906151036 76 97 3.0 6.0 0.00 0.00 0.00 88 1015.7
20260906150531 76 129 4.0 9.0 0.00 0.00 0.00 87 1015.7
20260906150026 76 153 5.0 8.0 0.00 0.00 0.00 88 1015.5
20260906145525 76 154 2.0 5.0 0.00 0.00 0.00 87 1015.5
20260906145020 76 154 4.0 13.0 0.00 0.00 0.00 87 1015.4
20260906144515 76 117 5.0 5.0 0.00 0.00 0.00 88 1015.4
20260906144010 75 94 5.0 7.0 0.00 0.00 0.00 88 1015.4
20260906143505 75 103 6.0 8.0 0.00 0.00 0.00 88 1015.4
20260906143002 75 88 6.0 8.0 0.00 0.00 0.00 88 1015.3
20260906142501 75 155 6.0 7.0 0.00 0.00 0.00 89 1015.2
20260906141955 74 101 3.0 6.0 0.00 0.00 0.00 90 1015.3
20260906141449 74 129 3.0 6.0 0.00 0.00 0.00 91 1015.4
20260906140945 74 108 8.0 8.0 0.00 0.00 0.00 91 1015.5
20260906140439 74 129 4.0 6.0 0.00 0.00 0.00 91 1015.6
20260906135937 74 124 6.0 7.0 0.00 0.00 0.00 91 1015.5
20260906135436 74 100 5.0 8.0 0.00 0.00 0.00 91 1015.5
20260906134932 74 110 4.0 8.0 0.00 0.00 0.00 91 1015.6
20260906134426 74 130 3.0 6.0 0.00 0.00 0.00 91 1015.7
20260906133921 73 105 5.0 6.0 0.00 0.00 0.00 91 1015.4
20260906133417 73 88 3.0 9.0 0.00 0.00 0.00 92 1015.5
20260906132913 73 102 3.0 8.0 0.00 0.00 0.00 92 1015.6
20260906132408 73 100 4.0 7.0 0.00 0.00 0.00 92 1015.5
20260906131904 73 112 2.0 6.0 0.00 0.00 0.00 93 1015.5
20260906131359 73 92 4.0 7.0 0.00 0.00 0.00 93 1015.3
20260906130854 73 155 2.0 7.0 0.00 0.00 0.00 93 1015.2
20260906130354 73 124 3.0 4.0 0.00 0.00 0.00 93 1015.4
20260906125853 73 89 3.0 5.0 0.00 0.00 0.00 93 1015.4
20260906125350 73 103 2.0 5.0 0.00 0.00 0.00 93 1015.4
20260906124845 73 124 2.0 5.0 0.00 0.00 0.00 94 1015.2
20260906124341 73 150 3.0 5.0 0.00 0.00 0.00 94 1015.3
20260906123840 72 151 1.0 4.0 0.00 0.00 0.00 94 1015.1
20260906123335 72 150 4.0 7.0 0.00 0.00 0.00 94 1015.1
20260906122834 72 111 4.0 9.0 0.00 0.00 0.00 94 1015.0
20260906122330 72 164 4.0 5.0 0.00 0.00 0.00 94 1015.0
20260906121826 72 116 3.0 5.0 0.00 0.00 0.00 95 1015.0
20260906121322 72 111 2.0 6.0 0.00 0.00 0.00 95 1014.8
20260906120818 72 129 3.0 5.0 0.00 0.00 0.00 95 1015.0
20260906120314 72 116 4.0 8.0 0.00 0.00 0.00 95 1015.0
20260906115810 72 142 4.0 6.0 0.00 0.00 0.00 95 1015.0
20260906115306 72 115 4.0 4.0 0.00 0.00 0.00 95 1015.0
20260906114804 72 123 4.0 5.0 0.00 0.00 0.00 94 1015.0
20260906114259 72 117 2.0 6.0 0.00 0.00 0.00 94 1014.8
20260906113754 72 92 4.0 5.0 0.00 0.00 0.00 94 1014.8
20260906113249 72 121 4.0 6.0 0.00 0.00 0.00 94 1014.7
20260906112749 72 142 6.0 7.0 0.00 0.00 0.00 94 1014.8
20260906112246 72 135 9.0 11.0 0.00 0.00 0.00 93 1014.7
20260906111744 72 155 6.0 7.0 0.00 0.00 0.00 93 1014.9
20260906111238 72 116 6.0 6.0 0.00 0.00 0.00 93 1014.9
20260906110734 72 108 6.0 10.0 0.00 0.00 0.00 93 1015.1
20260906110230 72 140 3.0 9.0 0.00 0.00 0.00 93 1015.3
20260906105728 72 154 2.0 10.0 0.00 0.00 0.00 93 1015.1
20260906105225 72 134 6.0 7.0 0.00 0.00 0.00 93 1015.3
20260906104725 72 115 6.0 7.0 0.00 0.00 0.00 93 1015.2
20260906104224 72 122 2.0 6.0 0.00 0.00 0.00 92 1015.2
20260906103721 72 147 4.0 9.0 0.00 0.00 0.00 92 1015.2
20260906103216 72 128 2.0 6.0 0.00 0.00 0.00 92 1015.0
20260906102712 72 71 4.0 7.0 0.00 0.00 0.00 92 1015.1
20260906102211 72 103 3.0 6.0 0.00 0.00 0.00 92 1015.2
20260906101706 72 133 3.0 7.0 0.00 0.00 0.00 92 1015.2
20260906101201 72 114 3.0 6.0 0.00 0.00 0.00 92 1015.4
20260906100656 72 131 2.0 8.0 0.00 0.00 0.00 91 1015.3
20260906100151 72 99 3.0 5.0 0.00 0.00 0.00 91 1015.3
20260906095646 72 133 2.0 5.0 0.00 0.00 0.00 91 1015.2
20260906095141 72 137 1.0 4.0 0.00 0.00 0.00 91 1015.2
20260906094640 72 134 2.0 9.0 0.00 0.00 0.00 91 1015.0
20260906094135 72 141 3.0 5.0 0.00 0.00 0.00 91 1015.1
20260906093631 72 127 3.0 4.0 0.00 0.00 0.00 91 1015.0
20260906093126 72 93 4.0 5.0 0.00 0.00 0.00 91 1014.8
20260906092621 72 149 3.0 6.0 0.00 0.00 0.00 91 1014.7
20260906092116 72 125 6.0 6.0 0.00 0.00 0.00 91 1014.7
20260906091612 72 130 5.0 11.0 0.00 0.00 0.00 91 1014.6
20260906091108 72 103 3.0 8.0 0.00 0.00 0.00 92 1014.8
20260906090603 72 141 4.0 4.0 0.00 0.00 0.00 91 1014.8
20260906085602 72 161 3.0 6.0 0.00 0.00 0.00 91 1014.6
20260906085102 72 105 3.0 5.0 0.00 0.00 0.00 91 1014.6
20260906084556 72 120 2.0 8.0 0.00 0.00 0.00 91 1014.4
20260906084055 72 103 2.0 6.0 0.00 0.00 0.00 91 1014.5
20260906083551 72 136 4.0 8.0 0.00 0.00 0.00 91 1014.3
20260906083050 71 108 4.0 11.0 0.00 0.00 0.00 91 1014.3
20260906082546 71 127 4.0 6.0 0.00 0.00 0.00 91 1014.2
20260906082042 71 123 5.0 6.0 0.00 0.00 0.00 92 1014.3
20260906081538 71 129 2.0 5.0 0.00 0.00 0.00 91 1014.3
20260906081033 71 104 5.0 7.0 0.00 0.00 0.00 91 1014.2
20260906080529 71 150 4.0 6.0 0.00 0.00 0.00 91 1014.2
20260906080025 71 145 5.0 6.0 0.00 0.00 0.00 91 1014.2
20260906075520 71 150 2.0 6.0 0.00 0.00 0.00 91 1014.1
20260906075014 71 108 2.0 5.0 0.00 0.00 0.00 91 1014.2
20260906074509 71 124 4.0 7.0 0.00 0.00 0.00 91 1014.2
20260906074008 71 106 3.0 5.0 0.00 0.00 0.00 91 1014.4
20260906073503 71 137 3.0 6.0 0.00 0.00 0.00 91 1014.1
20260906072959 71 113 4.0 8.0 0.00 0.00 0.00 91 1014.1
20260906072454 71 118 6.0 7.0 0.00 0.00 0.00 91 1014.2
20260906071950 71 100 6.0 7.0 0.00 0.00 0.00 90 1014.2
20260906071446 71 138 8.0 8.0 0.00 0.00 0.00 90 1014.4
20260906070941 71 95 5.0 6.0 0.00 0.00 0.00 90 1014.3
20260906070437 71 112 1.0 8.0 0.00 0.00 0.00 90 1014.4
20260906065932 71 125 4.0 7.0 0.00 0.00 0.00 89 1014.3
20260906065427 72 83 6.0 8.0 0.00 0.00 0.00 89 1014.3
20260906064922 72 127 3.0 7.0 0.00 0.00 0.00 89 1014.5
20260906064418 72 104 4.0 9.0 0.00 0.00 0.00 88 1014.5
20260906063918 72 124 4.0 6.0 0.00 0.00 0.00 88 1014.5
20260906063414 72 111 4.0 9.0 0.00 0.00 0.00 88 1014.7
20260906062909 72 118 3.0 7.0 0.00 0.00 0.00 87 1014.7
20260906062408 72 111 5.0 6.0 0.00 0.00 0.00 87 1014.9
20260906061903 72 124 3.0 5.0 0.00 0.00 0.00 87 1014.8
20260906061354 72 137 2.0 8.0 0.00 0.00 0.00 87 1015.0
20260906060848 72 99 6.0 6.0 0.00 0.00 0.00 87 1015.0
20260906060346 72 107 2.0 7.0 0.00 0.00 0.00 86 1015.0
20260906055842 73 99 4.0 10.0 0.00 0.00 0.00 86 1015.1
20260906055337 73 125 4.0 9.0 0.00 0.00 0.00 86 1015.2
20260906054832 73 135 2.0 10.0 0.00 0.00 0.00 86 1015.0
20260906054327 73 101 6.0 9.0 0.00 0.00 0.00 85 1015.0
20260906053824 73 109 2.0 8.0 0.00 0.00 0.00 85 1014.9
20260906053319 73 95 4.0 9.0 0.00 0.00 0.00 85 1015.0
20260906052814 73 87 9.0 11.0 0.00 0.00 0.00 84 1014.8
20260906052311 73 97 6.0 8.0 0.00 0.00 0.00 84 1015.2
20260906051808 74 101 4.0 7.0 0.00 0.00 0.00 84 1015.2
20260906051307 74 134 3.0 9.0 0.00 0.00 0.00 84 1015.2
20260906050803 74 95 4.0 6.0 0.00 0.00 0.00 84 1015.3
20260906050258 74 117 4.0 8.0 0.00 0.00 0.00 84 1015.2
20260906045756 74 166 1.0 8.0 0.00 0.00 0.00 83 1015.1
20260906045251 74 88 4.0 8.0 0.00 0.00 0.00 83 1015.1
20260906044747 74 110 4.0 8.0 0.00 0.00 0.00 83 1015.0
20260906044242 74 138 2.0 8.0 0.00 0.00 0.00 83 1014.9
20260906043738 74 87 3.0 6.0 0.00 0.00 0.00 83 1015.1
20260906043234 74 129 2.0 4.0 0.00 0.00 0.00 83 1015.2
20260906042733 74 147 1.0 5.0 0.00 0.00 0.00 83 1015.2
20260906042232 75 137 3.0 6.0 0.00 0.00 0.00 82 1015.3
20260906041728 75 103 2.0 7.0 0.00 0.00 0.00 82 1015.4
20260906041223 75 91 4.0 5.0 0.00 0.00 0.00 82 1015.3
20260906040719 75 104 2.0 5.0 0.00 0.00 0.00 82 1015.2
20260906040214 75 148 4.0 5.0 0.00 0.00 0.00 82 1015.0
20260906035709 75 106 5.0 6.0 0.00 0.00 0.00 81 1015.1
20260906035204 75 110 4.0 7.0 0.00 0.00 0.00 81 1015.1
20260906034658 75 94 2.0 7.0 0.00 0.00 0.00 82 1015.2
20260906034153 75 109 2.0 6.0 0.00 0.00 0.00 81 1015.2
20260906033649 75 101 1.0 6.0 0.00 0.00 0.00 81 1015.4
20260906033143 75 113 4.0 5.0 0.00 0.00 0.00 81 1015.1
20260906032640 75 127 6.0 6.0 0.00 0.00 0.00 81 1015.3
20260906032139 76 118 4.0 5.0 0.00 0.00 0.00 81 1015.0
20260906031635 76 99 6.0 6.0 0.00 0.00 0.00 80 1015.2
20260906031130 76 129 2.0 5.0 0.00 0.00 0.00 81 1015.0
20260906030630 76 100 6.0 8.0 0.00 0.00 0.00 80 1014.9
20260906030125 76 101 3.0 6.0 0.00 0.00 0.00 80 1014.9
20260906025624 76 113 3.0 5.0 0.00 0.00 0.00 81 1015.1
20260906025123 76 114 4.0 8.0 0.00 0.00 0.00 81 1015.0
20260906024618 76 121 5.0 5.0 0.00 0.00 0.00 81 1014.8
20260906024113 76 111 4.0 6.0 0.00 0.00 0.00 82 1014.6
20260906023609 76 124 1.0 4.0 0.00 0.00 0.00 82 1014.6
20260906023104 76 88 3.0 8.0 0.00 0.00 0.00 82 1014.6
20260906022559 76 128 5.0 9.0 0.00 0.00 0.00 82 1014.3
20260906022055 77 108 4.0 8.0 0.00 0.00 0.00 82 1014.5
20260906021550 77 95 4.0 7.0 0.00 0.00 0.00 82 1014.5
20260906021049 77 89 4.0 9.0 0.00 0.00 0.00 82 1014.6
20260906020548 77 114 4.0 5.0 0.00 0.00 0.00 82 1014.5
20260906020048 77 85 4.0 6.0 0.00 0.00 0.00 82 1014.5
20260906015542 77 99 4.0 5.0 0.00 0.00 0.00 82 1014.5
20260906015042 77 99 4.0 8.0 0.00 0.00 0.00 82 1014.5
20260906014536 77 94 2.0 8.0 0.00 0.00 0.00 81 1014.5
20260906014032 77 109 4.0 6.0 0.00 0.00 0.00 82 1014.4
20260906013527 77 105 4.0 7.0 0.00 0.00 0.00 82 1014.3
20260906013023 77 96 4.0 6.0 0.00 0.00 0.00 82 1014.5
20260906012518 77 91 3.0 4.0 0.00 0.00 0.00 82 1014.3
20260906012017 77 114 3.0 6.0 0.00 0.00 0.00 82 1014.5
20260906011514 77 93 4.0 4.0 0.00 0.00 0.00 82 1014.2
20260906011013 77 122 2.0 4.0 0.00 0.00 0.00 83 1014.2
20260906010509 77 103 2.0 3.0 0.00 0.00 0.00 83 1014.4
20260906010005 77 115 1.0 2.0 0.00 0.00 0.00 83 1014.4
20260906005504 78 135 2.0 2.0 0.00 0.00 0.00 82 1014.4
20260906005003 78 125 1.0 3.0 0.00 0.00 0.00 81 1014.3
20260906004457 78 102 2.0 2.0 0.00 0.00 0.00 81 1014.3
20260906003952 79 125 2.0 2.0 0.00 0.00 0.00 79 1014.5
20260906003448 79 109 2.0 2.0 0.00 0.00 0.00 79 1014.3
20260906002943 79 121 2.0 2.0 0.00 0.00 0.00 78 1014.3
20260906002443 80 73 2.0 2.0 0.00 0.00 0.00 77 1014.3
20260906001937 80 107 0.0 2.0 0.00 0.00 0.00 77 1014.1
20260906001433 80 96 2.0 3.0 0.00 0.00 0.00 76 1013.7
20260906000928 80 135 3.0 4.0 0.00 0.00 0.00 75 1013.8
20260906000425 81 111 3.0 6.0 0.00 0.00 0.00 74 1013.2
20260905235918 82 116 2.0 5.0 0.00 0.00 0.00 73 1013.0
20260905235412 82 104 3.0 8.0 0.00 0.00 0.00 72 1012.8
20260905234908 83 102 5.0 6.0 0.00 0.00 0.00 71 1012.9
20260905234403 83 95 4.0 7.0 0.00 0.00 0.00 71 1012.8
20260905233858 83 107 6.0 9.0 0.00 0.00 0.00 71 1012.7
20260905233353 83 161 4.0 4.0 0.00 0.00 0.00 71 1012.7
20260905232852 83 111 4.0 5.0 0.00 0.00 0.00 72 1012.8
20260905232349 83 81 6.0 7.0 0.00 0.00 0.00 72 1012.6
20260905231838 82 142 7.0 7.0 0.00 0.00 0.00 72 1012.7
20260905231338 82 105 11.0 11.0 0.00 0.00 0.00 73 1012.7
20260905230830 82 71 5.0 14.0 0.00 0.00 0.00 73 1012.9
20260905230327 83 165 5.0 6.0 0.00 0.00 0.00 73 1012.8
20260905225827 82 112 5.0 9.0 0.00 0.00 0.00 73 1012.8
20260905225322 82 76 7.0 12.0 0.00 0.00 0.00 74 1012.8
20260905224821 81 112 5.0 14.0 0.00 0.00 0.00 74 1012.9
20260905224317 81 100 9.0 17.0 0.00 0.00 0.00 74 1012.9
20260905223812 81 80 10.0 14.0 0.00 0.00 0.00 74 1012.9
20260905223309 81 100 6.0 11.0 0.00 0.00 0.00 74 1012.6
20260905222804 81 100 8.0 11.0 0.00 0.00 0.00 75 1012.7
20260905222306 81 100 10.0 13.0 0.00 0.00 0.00 75 1012.5
20260905221759 81 109 6.0 12.0 0.00 0.00 0.00 76 1012.5
20260905221256 81 115 11.0 14.0 0.00 0.00 0.00 76 1012.5
20260905220751 81 116 6.0 19.0 0.00 0.00 0.00 76 1012.5
20260905220248 81 99 7.0 16.0 0.00 0.00 0.00 75 1012.5
20260905215747 81 110 11.0 15.0 0.00 0.00 0.00 74 1012.3
20260905215243 81 95 7.0 15.0 0.00 0.00 0.00 75 1012.2
20260905214738 81 100 8.0 17.0 0.00 0.00 0.00 75 1012.3
20260905214234 81 96 11.0 19.0 0.00 0.00 0.00 74 1012.4
20260905213729 82 94 8.0 14.0 0.00 0.00 0.00 73 1012.8
20260905213225 82 110 7.0 16.0 0.00 0.00 0.00 73 1012.9
20260905212720 82 82 8.0 16.0 0.00 0.00 0.00 73 1013.0
20260905212219 82 81 7.0 16.0 0.00 0.00 0.00 72 1012.9
20260905211714 82 86 6.0 12.0 0.00 0.00 0.00 73 1013.3
20260905211209 82 103 10.0 14.0 0.00 0.00 0.00 72 1013.3
20260905210706 82 57 8.0 14.0 0.00 0.00 0.00 72 1013.4
20260905210205 82 76 11.0 12.0 0.00 0.00 0.00 71 1013.4
20260905205704 82 85 10.0 14.0 0.00 0.00 0.00 72 1013.5
20260905205159 82 66 11.0 13.0 0.00 0.00 0.00 72 1013.7
20260905204658 82 58 11.0 17.0 0.00 0.00 0.00 72 1013.5
20260905204148 82 96 4.0 14.0 0.00 0.00 0.00 72 1013.9
20260905203643 81 81 5.0 14.0 0.00 0.00 0.00 73 1014.0
20260905203138 82 79 7.0 13.0 0.00 0.00 0.00 72 1014.1
20260905202633 82 89 7.0 15.0 0.00 0.00 0.00 71 1013.9
20260905202128 81 72 8.0 16.0 0.00 0.00 0.00 72 1014.2
20260905201624 82 107 9.0 11.0 0.00 0.00 0.00 70 1014.3
20260905201123 82 102 10.0 11.0 0.00 0.00 0.00 70 1014.3
20260905200619 82 98 7.0 12.0 0.00 0.00 0.00 71 1014.3
20260905200114 81 80 8.0 13.0 0.00 0.00 0.00 71 1014.4
20260905195613 81 86 3.0 13.0 0.00 0.00 0.00 74 1014.4
20260905195108 82 96 6.0 10.0 0.00 0.00 0.00 72 1014.4
20260905194608 82 75 8.0 10.0 0.00 0.00 0.00 72 1014.6